Time,TemperatureF,DewpointF,PressureIn,WindDirection,WindDirectionDegrees,WindSpeedMPH,WindSpeedGustMPH,Humidity,HourlyPrecipIn,Conditions,Clouds,dailyrainin,SolarRadiationWatts/m^2,SoftwareType,DateUTC
2013-05-02 00:01:00,15.0,12.0,-100.00,SSE,147,6.0,14.0,88,0.00,,,0.00,0.000000,,2013-05-02 06:01:00,
2013-05-02 00:12:00,15.0,12.0,-100.00,SSE,147,6.0,14.0,88,0.00,,,0.00,0.000000,,2013-05-02 06:12:00,
2013-05-02 00:21:00,15.0,12.0,-100.00,SSE,147,6.0,14.0,88,0.00,,,0.00,0.000000,,2013-05-02 06:21:00,
2013-05-02 00:31:00,15.0,12.0,-100.00,SSE,147,6.0,14.0,88,0.00,,,0.00,0.000000,,2013-05-02 06:31:00,
2013-05-02 00:52:00,14.0,11.0,-100.00,SE,133,7.0,15.0,87,0.00,,,0.00,0.000000,,2013-05-02 06:52:00,
2013-05-02 01:02:00,14.0,11.0,-100.00,SE,133,7.0,15.0,87,0.00,,,0.00,0.000000,,2013-05-02 07:02:00,
2013-05-02 01:11:00,14.0,11.0,-100.00,SE,133,7.0,15.0,87,0.00,,,0.00,0.000000,,2013-05-02 07:11:00,
2013-05-02 01:21:00,14.0,11.0,-100.00,SE,133,7.0,15.0,87,0.00,,,0.00,0.000000,,2013-05-02 07:21:00,
2013-05-02 01:32:00,14.0,11.0,-100.00,SE,133,7.0,15.0,87,0.00,,,0.00,0.000000,,2013-05-02 07:32:00,
2013-05-02 01:52:00,14.0,11.0,-100.00,WNW,290,4.0,15.0,87,0.00,,,0.00,0.000000,,2013-05-02 07:52:00,
2013-05-02 02:02:00,14.0,11.0,-100.00,WNW,290,4.0,15.0,87,0.00,,,0.00,0.000000,,2013-05-02 08:02:00,
2013-05-02 02:11:00,14.0,11.0,-100.00,WNW,290,4.0,15.0,87,0.00,,,0.00,0.000000,,2013-05-02 08:11:00,
2013-05-02 02:22:00,14.0,11.0,-100.00,WNW,290,4.0,15.0,87,0.00,,,0.00,0.000000,,2013-05-02 08:22:00,
2013-05-02 02:32:00,14.0,11.0,-100.00,WNW,290,4.0,15.0,87,0.00,,,0.00,0.000000,,2013-05-02 08:32:00,
2013-05-02 02:52:00,13.0,10.0,-100.00,West,280,2.0,9.0,88,0.00,,,0.00,0.000000,,2013-05-02 08:52:00,
2013-05-02 03:02:00,13.0,10.0,-100.00,West,280,2.0,9.0,88,0.00,,,0.00,0.000000,,2013-05-02 09:02:00,
2013-05-02 03:12:00,13.0,10.0,-100.00,West,280,2.0,9.0,88,0.00,,,0.00,0.000000,,2013-05-02 09:12:00,
2013-05-02 03:21:00,13.0,10.0,-100.00,West,280,2.0,9.0,88,0.00,,,0.00,0.000000,,2013-05-02 09:21:00,
2013-05-02 03:32:00,13.0,10.0,-100.00,West,280,2.0,9.0,88,0.00,,,0.00,0.000000,,2013-05-02 09:32:00,
2013-05-02 03:52:00,13.0,10.0,-100.00,SSW,194,3.0,9.0,88,0.00,,,0.00,0.000000,,2013-05-02 09:52:00,
2013-05-02 04:03:00,13.0,10.0,-100.00,SSW,194,3.0,9.0,88,0.00,,,0.00,0.000000,,2013-05-02 10:03:00,
2013-05-02 04:12:00,13.0,10.0,-100.00,SSW,194,3.0,9.0,88,0.00,,,0.00,0.000000,,2013-05-02 10:12:00,
2013-05-02 04:22:00,13.0,10.0,-100.00,SSW,194,3.0,9.0,88,0.00,,,0.00,0.000000,,2013-05-02 10:22:00,
2013-05-02 04:33:00,13.0,10.0,-100.00,SSW,194,3.0,9.0,88,0.00,,,0.00,0.000000,,2013-05-02 10:33:00,
2013-05-02 04:53:00,13.0,10.0,-100.00,SSE,161,4.0,11.0,88,0.00,,,0.00,0.000000,,2013-05-02 10:53:00,
2013-05-02 05:02:00,13.0,10.0,-100.00,SSE,161,4.0,11.0,88,0.00,,,0.00,0.000000,,2013-05-02 11:02:00,
2013-05-02 05:12:00,13.0,10.0,-100.00,SSE,161,4.0,11.0,88,0.00,,,0.00,0.000000,,2013-05-02 11:12:00,
2013-05-02 05:22:00,13.0,10.0,-100.00,SSE,161,4.0,11.0,88,0.00,,,0.00,0.000000,,2013-05-02 11:22:00,
2013-05-02 05:32:00,13.0,10.0,-100.00,SSE,161,4.0,11.0,88,0.00,,,0.00,0.000000,,2013-05-02 11:32:00,
2013-05-02 05:52:00,14.0,11.0,-100.00,SSW,205,2.0,4.0,88,0.00,,,0.00,0.000000,,2013-05-02 11:52:00,
2013-05-02 06:01:00,14.0,11.0,-100.00,SSW,205,2.0,4.0,88,0.00,,,0.00,0.000000,,2013-05-02 12:01:00,
2013-05-02 06:11:00,14.0,11.0,-100.00,SSW,205,2.0,4.0,88,0.00,,,0.00,0.000000,,2013-05-02 12:11:00,
2013-05-02 06:21:00,14.0,11.0,-100.00,SSW,205,2.0,4.0,88,0.00,,,0.00,0.000000,,2013-05-02 12:21:00,
2013-05-02 06:32:00,14.0,11.0,-100.00,SSW,205,2.0,4.0,88,0.00,,,0.00,0.000000,,2013-05-02 12:32:00,
2013-05-02 06:52:00,14.0,11.0,-100.00,SE,135,3.0,9.0,87,0.00,,,0.00,5.000000,,2013-05-02 12:52:00,
2013-05-02 07:01:00,14.0,11.0,-100.00,SE,135,3.0,9.0,87,0.00,,,0.00,5.000000,,2013-05-02 13:01:00,
2013-05-02 07:11:00,14.0,11.0,-100.00,SE,135,3.0,9.0,87,0.00,,,0.00,5.000000,,2013-05-02 13:11:00,
2013-05-02 07:21:00,14.0,11.0,-100.00,SE,135,3.0,9.0,87,0.00,,,0.00,5.000000,,2013-05-02 13:21:00,
2013-05-02 07:32:00,14.0,11.0,-100.00,SE,135,3.0,9.0,87,0.00,,,0.00,5.000000,,2013-05-02 13:32:00,
2013-05-02 07:52:00,15.0,12.0,-100.00,North,353,2.0,7.0,87,0.00,,,0.00,48.000000,,2013-05-02 13:52:00,
2013-05-02 08:02:00,15.0,12.0,-100.00,North,353,2.0,7.0,87,0.00,,,0.00,48.000000,,2013-05-02 14:02:00,
2013-05-02 08:11:00,15.0,12.0,-100.00,North,353,2.0,7.0,87,0.00,,,0.00,48.000000,,2013-05-02 14:11:00,
2013-05-02 08:22:00,15.0,12.0,-100.00,North,353,2.0,7.0,87,0.00,,,0.00,48.000000,,2013-05-02 14:22:00,
2013-05-02 08:32:00,15.0,12.0,-100.00,North,353,2.0,7.0,87,0.00,,,0.00,48.000000,,2013-05-02 14:32:00,
2013-05-02 08:52:00,20.0,16.0,-100.00,ENE,60,4.0,8.0,84,0.00,,,0.00,158.000000,,2013-05-02 14:52:00,
2013-05-02 09:02:00,20.0,16.0,-100.00,ENE,60,4.0,8.0,84,0.00,,,0.00,158.000000,,2013-05-02 15:02:00,
2013-05-02 09:12:00,20.0,16.0,-100.00,ENE,60,4.0,8.0,84,0.00,,,0.00,158.000000,,2013-05-02 15:12:00,
2013-05-02 09:22:00,20.0,16.0,-100.00,ENE,60,4.0,8.0,84,0.00,,,0.00,158.000000,,2013-05-02 15:22:00,
2013-05-02 09:33:00,20.0,16.0,-100.00,ENE,60,4.0,8.0,84,0.00,,,0.00,158.000000,,2013-05-02 15:33:00,
2013-05-02 10:03:00,23.0,13.0,-100.00,NW,318,4.0,9.0,65,0.09,,,0.09,548.000000,,2013-05-02 16:03:00,
2013-05-02 10:13:00,23.0,13.0,-100.00,NW,318,4.0,9.0,65,0.09,,,0.09,548.000000,,2013-05-02 16:13:00,
2013-05-02 10:22:00,23.0,13.0,-100.00,NW,318,4.0,9.0,65,0.09,,,0.09,548.000000,,2013-05-02 16:22:00,
2013-05-02 10:32:00,23.0,13.0,-100.00,NW,318,4.0,9.0,65,0.09,,,0.09,548.000000,,2013-05-02 16:32:00,
2013-05-02 10:52:00,25.0,16.0,-100.00,NW,324,4.0,7.0,69,0.02,,,0.11,469.000000,,2013-05-02 16:52:00,
2013-05-02 11:02:00,25.0,16.0,-100.00,NW,324,4.0,7.0,69,0.02,,,0.11,469.000000,,2013-05-02 17:02:00,
2013-05-02 11:12:00,25.0,16.0,-100.00,NW,324,4.0,7.0,69,0.02,,,0.11,469.000000,,2013-05-02 17:12:00,
2013-05-02 11:22:00,25.0,16.0,-100.00,NW,324,4.0,7.0,69,0.02,,,0.11,469.000000,,2013-05-02 17:22:00,
2013-05-02 11:32:00,25.0,16.0,-100.00,NW,324,4.0,7.0,69,0.02,,,0.11,469.000000,,2013-05-02 17:32:00,
2013-05-02 11:52:00,30.0,18.0,-100.00,North,2,4.0,8.0,60,0.00,,,0.11,892.000000,,2013-05-02 17:52:00,
2013-05-02 12:01:00,30.0,18.0,-100.00,North,2,4.0,8.0,60,0.00,,,0.11,892.000000,,2013-05-02 18:01:00,
2013-05-02 12:11:00,30.0,18.0,-100.00,North,2,4.0,8.0,60,0.00,,,0.11,892.000000,,2013-05-02 18:11:00,
2013-05-02 12:21:00,30.0,18.0,-100.00,North,2,4.0,8.0,60,0.00,,,0.11,892.000000,,2013-05-02 18:21:00,
2013-05-02 12:32:00,30.0,18.0,-100.00,North,2,4.0,8.0,60,0.00,,,0.11,892.000000,,2013-05-02 18:32:00,
2013-05-02 12:52:00,30.0,16.0,-100.00,North,10,4.0,9.0,56,0.00,,,0.11,970.000000,,2013-05-02 18:52:00,
2013-05-02 13:01:00,30.0,16.0,-100.00,North,10,4.0,9.0,56,0.00,,,0.11,970.000000,,2013-05-02 19:01:00,
2013-05-02 13:11:00,30.0,16.0,-100.00,North,10,4.0,9.0,56,0.00,,,0.11,970.000000,,2013-05-02 19:11:00,
2013-05-02 13:21:00,30.0,16.0,-100.00,North,10,4.0,9.0,56,0.00,,,0.11,970.000000,,2013-05-02 19:21:00,
2013-05-02 13:32:00,30.0,16.0,-100.00,North,10,4.0,9.0,56,0.00,,,0.11,970.000000,,2013-05-02 19:32:00,
2013-05-02 13:52:00,28.0,16.0,-100.00,SE,141,5.0,10.0,61,0.00,,,0.11,992.000000,,2013-05-02 19:52:00,
2013-05-02 14:02:00,28.0,16.0,-100.00,SE,141,5.0,10.0,61,0.00,,,0.11,992.000000,,2013-05-02 20:02:00,
2013-05-02 14:11:00,28.0,16.0,-100.00,SE,141,5.0,10.0,61,0.00,,,0.11,992.000000,,2013-05-02 20:11:00,
2013-05-02 14:22:00,28.0,16.0,-100.00,SE,141,5.0,10.0,61,0.00,,,0.11,992.000000,,2013-05-02 20:22:00,
2013-05-02 14:32:00,28.0,16.0,-100.00,SE,141,5.0,10.0,61,0.00,,,0.11,992.000000,,2013-05-02 20:32:00,
2013-05-02 14:52:00,31.0,18.0,-100.00,North,351,4.0,11.0,57,0.00,,,0.11,1021.000000,,2013-05-02 20:52:00,
2013-05-02 15:01:00,31.0,18.0,-100.00,North,351,4.0,11.0,57,0.00,,,0.11,1021.000000,,2013-05-02 21:01:00,
2013-05-02 15:11:00,31.0,18.0,-100.00,North,351,4.0,11.0,57,0.00,,,0.11,1021.000000,,2013-05-02 21:11:00,
2013-05-02 15:21:00,31.0,18.0,-100.00,North,351,4.0,11.0,57,0.00,,,0.11,1021.000000,,2013-05-02 21:21:00,
2013-05-02 15:33:00,31.0,18.0,-100.00,North,351,4.0,11.0,57,0.00,,,0.11,1021.000000,,2013-05-02 21:33:00,
2013-05-02 15:53:00,34.0,19.0,-100.00,NNE,17,4.0,12.0,53,0.00,,,0.11,911.000000,,2013-05-02 21:53:00,
2013-05-02 16:03:00,34.0,19.0,-100.00,NNE,17,4.0,12.0,53,0.00,,,0.11,911.000000,,2013-05-02 22:03:00,
2013-05-02 16:12:00,34.0,19.0,-100.00,NNE,17,4.0,12.0,53,0.00,,,0.11,911.000000,,2013-05-02 22:12:00,
2013-05-02 16:22:00,34.0,19.0,-100.00,NNE,17,4.0,12.0,53,0.00,,,0.11,911.000000,,2013-05-02 22:22:00,
2013-05-02 16:32:00,34.0,19.0,-100.00,NNE,17,4.0,12.0,53,0.00,,,0.11,911.000000,,2013-05-02 22:32:00,
2013-05-02 16:53:00,36.0,15.0,-100.00,NNW,333,7.0,14.0,42,0.00,,,0.11,763.000000,,2013-05-02 22:53:00,
2013-05-02 17:02:00,36.0,15.0,-100.00,NNW,333,7.0,14.0,42,0.00,,,0.11,763.000000,,2013-05-02 23:02:00,
2013-05-02 17:11:00,36.0,15.0,-100.00,NNW,333,7.0,14.0,42,0.00,,,0.11,763.000000,,2013-05-02 23:11:00,
2013-05-02 17:22:00,36.0,15.0,-100.00,NNW,333,7.0,14.0,42,0.00,,,0.11,763.000000,,2013-05-02 23:22:00,
2013-05-02 17:32:00,36.0,15.0,-100.00,NNW,333,7.0,14.0,42,0.00,,,0.11,763.000000,,2013-05-02 23:32:00,
2013-05-02 17:52:00,38.0,12.0,-100.00,NW,319,9.0,18.0,34,0.00,,,0.11,570.000000,,2013-05-02 23:52:00,
2013-05-02 18:01:00,38.0,12.0,-100.00,NW,319,9.0,18.0,34,0.00,,,0.11,570.000000,,2013-05-03 00:01:00,
2013-05-02 18:11:00,38.0,12.0,-100.00,NW,319,9.0,18.0,34,0.00,,,0.11,570.000000,,2013-05-03 00:11:00,
2013-05-02 18:21:00,38.0,12.0,-100.00,NW,319,9.0,18.0,34,0.00,,,0.11,570.000000,,2013-05-03 00:21:00,
2013-05-02 18:31:00,38.0,12.0,-100.00,NW,319,9.0,18.0,34,0.00,,,0.11,570.000000,,2013-05-03 00:31:00,
2013-05-02 18:52:00,38.0,8.0,-100.00,NW,304,10.0,20.0,28,0.00,,,0.11,354.000000,,2013-05-03 00:52:00,
2013-05-02 19:01:00,38.0,8.0,-100.00,NW,304,10.0,20.0,28,0.00,,,0.11,354.000000,,2013-05-03 01:01:00,
2013-05-02 19:11:00,38.0,8.0,-100.00,NW,304,10.0,20.0,28,0.00,,,0.11,354.000000,,2013-05-03 01:11:00,
2013-05-02 19:21:00,38.0,8.0,-100.00,NW,304,10.0,20.0,28,0.00,,,0.11,354.000000,,2013-05-03 01:21:00,
2013-05-02 19:31:00,38.0,8.0,-100.00,NW,304,10.0,20.0,28,0.00,,,0.11,354.000000,,2013-05-03 01:31:00,
2013-05-02 19:52:00,34.0,9.0,-100.00,WNW,290,6.0,17.0,35,0.00,,,0.11,135.000000,,2013-05-03 01:52:00,
2013-05-02 20:01:00,34.0,9.0,-100.00,WNW,290,6.0,17.0,35,0.00,,,0.11,135.000000,,2013-05-03 02:01:00,
2013-05-02 20:11:00,34.0,9.0,-100.00,WNW,290,6.0,17.0,35,0.00,,,0.11,135.000000,,2013-05-03 02:11:00,
2013-05-02 20:21:00,34.0,9.0,-100.00,WNW,290,6.0,17.0,35,0.00,,,0.11,135.000000,,2013-05-03 02:21:00,
2013-05-02 20:32:00,34.0,9.0,-100.00,WNW,290,6.0,17.0,35,0.00,,,0.11,135.000000,,2013-05-03 02:32:00,
2013-05-02 20:52:00,30.0,13.0,-100.00,WSW,253,5.0,7.0,49,0.00,,,0.11,5.000000,,2013-05-03 02:52:00,
2013-05-02 21:01:00,30.0,13.0,-100.00,WSW,253,5.0,7.0,49,0.00,,,0.11,5.000000,,2013-05-03 03:01:00,
2013-05-02 21:11:00,30.0,13.0,-100.00,WSW,253,5.0,7.0,49,0.00,,,0.11,5.000000,,2013-05-03 03:11:00,
2013-05-02 21:21:00,30.0,13.0,-100.00,WSW,253,5.0,7.0,49,0.00,,,0.11,5.000000,,2013-05-03 03:21:00,
2013-05-02 21:33:00,30.0,13.0,-100.00,WSW,253,5.0,7.0,49,0.00,,,0.11,5.000000,,2013-05-03 03:33:00,
2013-05-02 21:53:00,29.0,7.0,-100.00,WSW,255,3.0,9.0,39,0.00,,,0.11,0.000000,,2013-05-03 03:53:00,
2013-05-02 22:03:00,29.0,7.0,-100.00,WSW,255,3.0,9.0,39,0.00,,,0.11,0.000000,,2013-05-03 04:03:00,
2013-05-02 22:12:00,29.0,7.0,-100.00,WSW,255,3.0,9.0,39,0.00,,,0.11,0.000000,,2013-05-03 04:12:00,
2013-05-02 22:22:00,29.0,7.0,-100.00,WSW,255,3.0,9.0,39,0.00,,,0.11,0.000000,,2013-05-03 04:22:00,
2013-05-02 22:32:00,29.0,7.0,-100.00,WSW,255,3.0,9.0,39,0.00,,,0.11,0.000000,,2013-05-03 04:32:00,
2013-05-02 22:53:00,29.0,5.0,-100.00,SW,235,5.0,9.0,36,0.00,,,0.11,0.000000,,2013-05-03 04:53:00,
2013-05-02 23:02:00,29.0,5.0,-100.00,SW,235,5.0,9.0,36,0.00,,,0.11,0.000000,,2013-05-03 05:02:00,
2013-05-02 23:12:00,29.0,5.0,-100.00,SW,235,5.0,9.0,36,0.00,,,0.11,0.000000,,2013-05-03 05:12:00,
2013-05-02 23:21:00,29.0,5.0,-100.00,SW,235,5.0,9.0,36,0.00,,,0.11,0.000000,,2013-05-03 05:21:00,
2013-05-02 23:32:00,29.0,5.0,-100.00,SW,235,5.0,9.0,36,0.00,,,0.11,0.000000,,2013-05-03 05:32:00,
2013-05-02 23:52:00,28.0,4.0,-100.00,SW,229,5.0,7.0,35,0.00,,,0.11,0.000000,,2013-05-03 05:52:00,